Location: Angwan Shehu
(11.2514°N, 7.4613°E)
Time: 08:08:25
(UTC+00:00)

A-11 Canister half - Visible Passes

Search period start: 19 April 2021 00:00
Search period end: 29 April 2021 00:00
Orbit: 1525 x 1683 km, 47.3° (Epoch: 18 April)

Date Brightness Start Highest point End Pass type
(mag) Time Alt. Az. Time Alt. Az. Time Alt. Az.
19 Apr 10.9 20:07:57 10° NNE 20:10:43 11° NNE 20:11:50 11° NE visible
19 Apr 11.0 22:08:05 10° NNW 22:10:07 18° NNW 22:10:07 18° NNW visible
20 Apr 10.9 19:47:14 10° NNE 19:48:51 10° NNE 19:50:28 10° NE visible
20 Apr 10.7 21:46:28 10° NNW 21:49:34 22° NNW 21:49:34 22° NNW visible
21 Apr 10.5 21:24:51 10° NNW 21:29:03 26° N 21:29:03 26° N visible
22 Apr 10.3 21:03:14 10° NNW 21:08:33 30° N 21:08:33 30° N visible
23 Apr 10.1 20:41:39 10° NNW 20:48:06 34° NNE 20:48:06 34° NNE visible
24 Apr 9.9 20:20:03 10° NNW 20:27:42 35° NNE 20:27:42 35° NNE visible
24 Apr 11.1 22:24:38 10° NW 22:26:00 15° WNW 22:26:00 15° WNW visible
25 Apr 9.8 19:58:28 10° NNW 20:07:19 34° NE 20:07:19 34° NE visible
25 Apr 10.8 22:02:51 10° NW 22:05:38 21° WNW 22:05:38 21° WNW visible
26 Apr 9.9 19:36:54 10° NNW 19:45:39 32° NE 19:47:00 31° NE visible
26 Apr 10.4 21:41:05 10° NW 21:45:18 29° WNW 21:45:18 29° WNW visible
27 Apr 9.9 19:15:21 10° NNW 19:23:55 30° NE 19:26:43 27° ENE visible
27 Apr 10.0 21:19:20 10° NW 21:25:02 38° WNW 21:25:02 38° WNW visible
28 Apr 10.1 18:53:48 10° NNW 19:02:09 29° NE 19:06:29 21° ENE visible
28 Apr 9.6 20:57:35 10° NW 21:04:48 51° WNW 21:04:48 51° WNW visible
